Dewpoint
57 58 58 58 58 59 60 59 59 58 59 59 60 60 59 58 58 58 57 58 58 58 58 58 57 57 56
56 56 57 57 58 57 58 58 59 58 58 59 59 59 58 57 56 56 56 56 56 56 56 56 55 56 53
56 56 56 56 56 57 57 57 57 57 57 57 57 57 56 55 55 54 54 53 53 53 53 54 54 54 52
56 55 54 53 56 54 52 53 52 53 54 54 54 54 54 53 52 51 50 50 50 50 51 53 53 51 49
55 53 52 50 52 52 53 51 49 49 49 49 49 49 48 48 48 47 47 49 49 50 52 51 50 48 47
55 52 50 50 50 50 48 48 48 45 47 45 45 45 45 45 45 46 46 46 48 50 51 50 49 47 45
52 51 49 49 49 47 47 47 45 44 45 44 43 43 44 43 43 44 45 46 48 49 49 48 46 45 44
46 45 46 46 47 47 46 44 44 44 45 44 42 43 43 42 41 42 44 45 46 47 47 47 45 43 43
44 44 45 45 45 45 43 43 42 42 43 43 40 40 40 39 38 39 42 43 44 47 46 45 44 43 42
38 38 38 39 40 42 42 41 39 40 40 41 39 40 39 37 36 37 40 42 43 44 43 43 43 42 42
35 35 35 35 35 36 38 39 39 39 40 40 38 37 38 38 38 36 37 38 39 40 41 41 41 41 40
32 32 32 32 32 33 34 35 36 37 39 39 37 37 37 36 36 37 37 37 37 37 37 37 37 38 39
29 29 30 31 31 31 32 32 33 33 34 35 37 36 35 34 35 35 36 37 36 36 36 35 35 36 35
28 29 29 29 29 30 29 29 29 31 32 33 34 34 33 34 34 33 35 34 36 35 35 35 35 36 36
26 26 26 27 27 27 28 28 28 28 28 31 33 34 34 33 31 32 32 33 35 35 34 34 35 35 36
24 24 24 25 25 26 26 26 26 27 27 29 30 31 32 31 34 31 32 32 32 34 33 32 32 35 35
24 25 25 24 25 24 24 24 23 24 25 27 27 28 26 25 29 34 31 31 32 32 32 31 31 34 34
Wind_Speed
13 17 20 21 17 19 15 17 16 21 21 21 22 19 18 17 12 12 12 14 15 15 17 18 17 17 14
16 16 23 20 23 19 16 17 18 21 27 26 23 20 15 14 10 11 13 14 14 15 14 14 16 14 11
19 9 16 12 13 13 15 17 15 17 21 18 17 14 11 10 9 9 11 12 13 15 15 16 16 13 11
17 13 10 8 13 9 9 5 7 5 5 7 7 7 5 4 4 7 9 11 13 15 15 15 13 9 9
17 12 12 8 14 8 9 8 4 3 5 4 4 4 3 2 2 4 6 8 10 11 10 10 9 9 8
19 14 11 7 7 10 9 6 5 0 4 4 3 3 2 2 3 4 4 6 8 7 9 10 9 7 6
17 9 9 8 12 9 7 5 5 6 4 4 2 2 3 3 4 4 4 3 4 4 6 6 6 6 7
16 13 12 10 10 7 8 10 10 5 2 2 2 2 1 2 1 2 4 4 4 6 7 6 7 7 9
27 26 24 19 12 12 8 7 3 2 1 3 1 2 1 2 2 3 1 3 5 6 6 6 7 8 12
13 19 19 20 21 14 7 6 4 2 1 3 2 2 2 1 2 4 2 2 5 5 8 9 8 9 10
15 14 14 16 14 13 11 7 3 2 1 1 1 2 1 4 2 1 1 1 2 6 7 7 8 6 10
14 13 12 13 11 10 10 9 7 3 3 2 1 4 2 4 6 3 3 4 5 6 6 8 9 10 12
13 11 9 7 8 5 7 8 6 6 6 2 4 3 3 4 5 4 8 7 5 8 8 7 4 3 6
9 6 3 4 8 5 6 6 4 4 4 3 2 2 3 7 9 11 10 8 4 5 6 6 6 7 9
8 7 6 7 7 7 6 6 5 6 8 6 2 6 8 8 9 11 12 13 12 12 7 12 9 9 11
7 7 7 7 6 6 7 6 7 8 9 8 6 7 4 9 17 13 12 12 12 10 9 11 12 9 11
4 4 4 4 4 4 4 5 7 8 9 10 10 9 12 14 9 17 13 9 7 8 9 9 11 10 7
Wind_Direction
199 195 205 203 207 219 217 221 229 225 233 229 227 220 215 231 237 252 268 260 250 252 252 250 253 254 238
218 214 214 214 223 221 223 223 229 221 215 207 207 210 210 229 235 253 257 260 262 256 253 256 259 243 232
241 215 217 213 214 210 217 222 210 196 191 196 201 207 205 220 232 247 256 261 260 262 256 251 252 219 231
230 226 208 211 210 205 202 193 172 148 158 163 177 183 197 216 234 257 264 269 268 262 256 248 212 212 246
226 205 200 188 201 173 195 162 99 142 145 146 147 137 137 142 236 268 274 284 276 268 252 214 213 225 250
226 214 206 178 149 166 145 141 169 149 131 130 104 137 169 184 222 236 235 248 268 261 236 202 213 248 263
188 170 160 167 147 148 140 138 131 149 120 141 114 172 184 198 229 238 236 274 292 255 219 218 253 270 289
97 87 93 91 99 118 129 108 95 105 86 144 170 200 251 258 20 275 277 277 268 247 231 245 259 277 284
79 77 71 70 75 102 90 110 94 83 57 123 153 276 279 326 355 354 310 291 289 261 255 259 268 283 283
62 57 63 60 54 60 79 107 111 110 356 173 158 27 345 9 11 70 65 298 308 279 275 276 271 274 277
68 58 50 53 45 43 40 71 96 90 344 114 110 117 255 299 277 209 191 230 270 284 273 280 278 274 283
70 58 50 42 38 44 42 37 28 30 349 38 250 202 193 275 279 306 284 294 290 281 267 261 260 266 266
73 62 57 63 59 53 48 31 29 17 360 341 257 238 234 250 273 277 305 297 259 275 278 260 266 257 288
96 91 88 69 65 60 46 22 14 11 26 21 303 255 292 269 263 266 254 259 268 248 259 274 261 251 255
81 81 67 53 46 28 25 15 5 339 325 331 291 258 244 249 265 260 263 260 258 268 255 273 264 249 250
69 56 43 37 21 17 10 355 332 320 311 302 300 313 277 260 225 249 257 265 277 263 247 262 272 255 246
79 69 58 28 6 346 348 332 312 305 299 301 295 282 288 282 276 216 246 267 271 269 248 243 262 265 257